TimeCST,TemperatureF,Dew PointF,Humidity,Sea Level PressureIn,VisibilityMPH,Wind Direction,Wind SpeedMPH,Gust SpeedMPH,PrecipitationIn,Events,Conditions,WindDirDegrees,DateUTC
12:15 AM,24.6,24.6,100,30.37,7.0,Calm,Calm,-,N/A,,Clear,0,2013-01-05 06:15:00
12:35 AM,24.4,24.4,100,30.37,5.0,Calm,Calm,-,N/A,,Clear,0,2013-01-05 06:35:00
12:55 AM,24.4,24.4,100,30.36,5.0,Calm,Calm,-,N/A,,Clear,0,2013-01-05 06:55:00
1:15 AM,23.2,23.2,100,30.36,5.0,Calm,Calm,-,N/A,,Clear,0,2013-01-05 07:15:00
1:35 AM,23.7,23.7,100,30.36,5.0,Calm,Calm,-,N/A,,Clear,0,2013-01-05 07:35:00
1:55 AM,23.5,23.5,100,30.37,7.0,Calm,Calm,-,N/A,,Clear,0,2013-01-05 07:55:00
2:15 AM,23.5,23.5,100,30.37,5.0,Calm,Calm,-,N/A,,Clear,0,2013-01-05 08:15:00
2:35 AM,23.7,23.7,100,30.37,5.0,Calm,Calm,-,N/A,,Clear,0,2013-01-05 08:35:00
2:55 AM,22.1,22.1,100,30.37,5.0,Calm,Calm,-,N/A,,Clear,0,2013-01-05 08:55:00
3:15 AM,22.8,22.8,100,30.35,5.0,Calm,Calm,-,N/A,,Clear,0,2013-01-05 09:15:00
3:35 AM,21.9,21.9,100,30.37,7.0,Calm,Calm,-,N/A,,Clear,0,2013-01-05 09:35:00
3:55 AM,22.6,22.6,100,30.36,7.0,Calm,Calm,-,N/A,,Clear,0,2013-01-05 09:55:00
4:15 AM,21.9,21.9,100,30.36,5.0,Calm,Calm,-,N/A,,Clear,0,2013-01-05 10:15:00
4:35 AM,22.3,22.3,100,30.36,5.0,Calm,Calm,-,N/A,,Clear,0,2013-01-05 10:35:00
4:55 AM,23.0,23.0,100,30.36,5.0,Calm,Calm,-,N/A,,Clear,0,2013-01-05 10:55:00
5:15 AM,24.8,24.8,100,30.36,7.0,Calm,Calm,-,N/A,,Clear,0,2013-01-05 11:15:00
5:35 AM,26.2,26.2,100,30.35,5.0,Calm,Calm,-,N/A,,Mostly Cloudy,0,2013-01-05 11:35:00
5:55 AM,27.5,27.5,100,30.36,5.0,Calm,Calm,-,N/A,,Overcast,0,2013-01-05 11:55:00
6:35 AM,28.9,28.9,100,30.37,5.0,Calm,Calm,-,N/A,,Overcast,0,2013-01-05 12:35:00
6:55 AM,29.3,29.3,100,30.37,5.0,Calm,Calm,-,N/A,,Overcast,0,2013-01-05 12:55:00
7:15 AM,29.7,29.7,100,30.37,4.0,Calm,Calm,-,N/A,,Overcast,0,2013-01-05 13:15:00
7:35 AM,30.0,30.0,100,30.37,4.0,Calm,Calm,-,N/A,,Mostly Cloudy,0,2013-01-05 13:35:00
7:55 AM,30.9,30.9,100,30.38,5.0,Calm,Calm,-,N/A,,Scattered Clouds,0,2013-01-05 13:55:00
8:35 AM,33.1,31.8,95,30.37,10.0,Calm,Calm,-,N/A,,Overcast,0,2013-01-05 14:35:00
8:55 AM,33.4,32.4,96,30.37,7.0,Calm,Calm,-,N/A,,Mostly Cloudy,0,2013-01-05 14:55:00
9:35 AM,36.3,32.0,84,30.37,10.0,SSE,3.5,-,N/A,,Overcast,160,2013-01-05 15:35:00
9:55 AM,37.2,32.0,81,30.37,10.0,South,5.8,-,N/A,,Overcast,180,2013-01-05 15:55:00
10:35 AM,38.7,32.4,78,30.35,10.0,South,4.6,-,N/A,,Overcast,190,2013-01-05 16:35:00
10:55 AM,39.6,31.8,74,30.34,10.0,South,8.1,-,N/A,,Overcast,190,2013-01-05 16:55:00
11:15 AM,39.6,31.6,73,30.33,10.0,South,5.8,-,N/A,,Overcast,190,2013-01-05 17:15:00
11:35 AM,40.5,32.0,72,30.33,10.0,SSW,5.8,-,N/A,,Overcast,200,2013-01-05 17:35:00
11:55 AM,40.8,31.8,70,30.32,10.0,SW,6.9,-,N/A,,Overcast,220,2013-01-05 17:55:00
12:15 PM,41.2,32.0,70,30.30,10.0,SSW,6.9,-,N/A,,Overcast,200,2013-01-05 18:15:00
12:35 PM,41.0,31.6,69,30.29,10.0,SW,5.8,-,N/A,,Overcast,220,2013-01-05 18:35:00
12:55 PM,41.0,31.6,69,30.27,10.0,SSW,4.6,-,N/A,,Overcast,210,2013-01-05 18:55:00
1:15 PM,41.7,32.0,68,30.26,10.0,SSW,4.6,-,N/A,,Overcast,200,2013-01-05 19:15:00
1:35 PM,41.9,32.0,68,30.25,10.0,WSW,4.6,-,N/A,,Overcast,240,2013-01-05 19:35:00
1:55 PM,42.3,32.0,67,30.25,10.0,WSW,4.6,-,N/A,,Overcast,250,2013-01-05 19:55:00
2:15 PM,42.1,32.0,67,30.24,10.0,Calm,Calm,-,N/A,,Overcast,0,2013-01-05 20:15:00
2:35 PM,43.0,31.8,65,30.25,10.0,SW,5.8,-,N/A,,Overcast,230,2013-01-05 20:35:00
2:55 PM,43.7,32.0,63,30.24,10.0,South,4.6,-,N/A,,Overcast,190,2013-01-05 20:55:00
3:15 PM,43.2,32.0,65,30.24,10.0,SSW,9.2,-,N/A,,Overcast,200,2013-01-05 21:15:00
3:35 PM,43.0,32.2,66,30.23,10.0,South,6.9,-,N/A,,Overcast,190,2013-01-05 21:35:00
4:15 PM,42.4,32.0,67,30.23,10.0,South,8.1,-,N/A,,Overcast,180,2013-01-05 22:15:00
4:55 PM,41.5,32.0,69,30.23,10.0,South,5.8,-,N/A,,Overcast,170,2013-01-05 22:55:00
5:15 PM,41.2,32.0,70,30.23,10.0,South,5.8,-,N/A,,Overcast,180,2013-01-05 23:15:00
5:35 PM,41.2,31.5,68,30.24,10.0,SSW,4.6,-,N/A,,Overcast,200,2013-01-05 23:35:00
6:15 PM,40.5,31.6,71,30.25,10.0,South,5.8,-,N/A,,Overcast,190,2013-01-06 00:15:00
6:55 PM,39.4,30.7,71,30.23,10.0,South,5.8,-,N/A,,Mostly Cloudy,170,2013-01-06 00:55:00
7:15 PM,37.9,30.2,74,30.24,10.0,SSW,3.5,-,N/A,,Scattered Clouds,210,2013-01-06 01:15:00
7:35 PM,37.8,30.4,75,30.24,10.0,SSW,4.6,-,N/A,,Clear,200,2013-01-06 01:35:00
7:55 PM,37.9,30.2,74,30.23,10.0,South,4.6,-,N/A,,Clear,190,2013-01-06 01:55:00
8:15 PM,37.4,30.2,75,30.23,10.0,SW,4.6,-,N/A,,Clear,220,2013-01-06 02:15:00
8:35 PM,36.5,30.2,78,30.23,10.0,SSW,4.6,-,N/A,,Clear,210,2013-01-06 02:35:00
8:55 PM,36.7,30.4,78,30.23,10.0,SSW,4.6,-,N/A,,Scattered Clouds,210,2013-01-06 02:55:00
9:15 PM,37.8,31.1,77,30.24,10.0,West,3.5,-,N/A,,Overcast,260,2013-01-06 03:15:00
9:35 PM,38.1,31.5,77,30.23,10.0,WSW,5.8,-,N/A,,Overcast,240,2013-01-06 03:35:00
9:55 PM,38.5,32.0,78,30.23,10.0,SW,6.9,-,N/A,,Overcast,230,2013-01-06 03:55:00
10:15 PM,38.7,32.2,78,30.22,10.0,WSW,3.5,-,N/A,,Overcast,240,2013-01-06 04:15:00
10:35 PM,39.2,32.9,78,30.21,10.0,SW,8.1,-,N/A,,Overcast,220,2013-01-06 04:35:00
10:55 PM,39.7,33.3,78,30.21,10.0,SW,5.8,-,N/A,,Overcast,220,2013-01-06 04:55:00
11:15 PM,40.1,33.1,76,30.21,10.0,SSW,5.8,-,N/A,,Overcast,210,2013-01-06 05:15:00
11:35 PM,39.6,33.1,78,30.21,10.0,SW,5.8,-,N/A,,Overcast,220,2013-01-06 05:35:00
11:55 PM,39.4,32.9,78,30.20,10.0,SW,8.1,-,N/A,,Overcast,220,2013-01-06 05:55:00